This is the latest recevied weather packets stored in our database for station/object K3XY-2. If no packets are shown the sender has not sent any weather packets the latest 10 day(s).
| Time | Temp. | Humidity | Pressure | Rain* | Wind** | Luminosity | Snow |
|---|---|---|---|---|---|---|---|
| 1777829945 | 13.33° C | 39% | 1013.2 hPa | 0 mm | - | - | - |
| 1777829345 | 12.78° C | 38% | 1013.3 hPa | 0 mm | - | - | - |
| 1777828744 | 12.78° C | 38% | 1013.5 hPa | 0 mm | - | - | - |
| 1777828145 | 12.78° C | 42% | 1013.5 hPa | 0 mm | - | - | - |
| 1777827545 | 12.78° C | 39% | 1013.7 hPa | 0 mm | - | - | - |
| 1777826944 | 13.33° C | 42% | 1013.6 hPa | 0 mm | - | - | - |
| 1777826344 | 12.78° C | 45% | 1013.7 hPa | 0 mm | - | - | - |
| 1777825745 | 12.22° C | 42% | 1013.8 hPa | 0 mm | - | - | - |
| 1777825145 | 12.22° C | 43% | 1014 hPa | 0 mm | - | - | - |
| 1777824544 | 12.22° C | 43% | 1013.9 hPa | 0 mm | - | - | - |
| 1777823945 | 11.11° C | 46% | 1014.1 hPa | 0 mm | - | - | - |
| 1777823345 | 11.67° C | 48% | 1014.1 hPa | 0 mm | - | - | - |
| 1777822744 | 11.67° C | 49% | 1014.1 hPa | 0 mm | - | - | - |
| 1777822145 | 11.11° C | 47% | 1014.1 hPa | 0 mm | - | - | - |
| 1777821545 | 11.11° C | 49% | 1014.2 hPa | 0 mm | - | - | - |
| 1777820944 | 11.11° C | 48% | 1014.2 hPa | 0 mm | - | - | - |
| 1777820344 | 10.56° C | 51% | 1014.3 hPa | 0 mm | - | - | - |
| 1777819745 | 10° C | 52% | 1014.3 hPa | 0 mm | - | - | - |
| 1777819145 | 10° C | 53% | 1014.3 hPa | 0 mm | - | - | - |
| 1777818544 | 9.44° C | 54% | 1014.4 hPa | 0 mm | - | - | - |
| 1777817944 | 8.89° C | 53% | 1014.3 hPa | 0 mm | - | - | - |
| 1777817345 | 9.44° C | 54% | 1014.4 hPa | 0 mm | - | - | - |
| 1777816744 | 9.44° C | 56% | 1014.4 hPa | 0 mm | - | - | - |
| 1777816144 | - | - | 1014.3 hPa | 0 mm | - | - | - |
| 1777815545 | - | - | 1014.3 hPa | 0 mm | - | - | - |
* Rain latest hour (hover to see other rain measurements)
** Current wind speed in m/s (hover to see current wind gust speed)